Regional Weather Roundup
Issued by NWS

Home | Current Version | Previous Version | Graphics & Text | Print | Product List | Glossary On
Versions: 1 2 3 4 5 6 7 8 9 10 11 12 13 14 15 16 17 18 19 20 21 22 23 24 25 26 27 28 29 30 31 32 33 34 35 36 37 38 39 40 41 42 43 44 45 46 47 48 49 50
000
ASUS43 KOAX 091110
RWRNE

WEATHER ROUNDUP FOR NEBRASKA
NATIONAL WEATHER SERVICE OMAHA NE
500 AM CST FRI DEC 09 2016

NOTES: SATELLITE DATA IS BEING USED TO AUGMENT CLOUD COVER ABOVE
       12000 FEET.
       "FAIR" INDICATES FEW OR NO CLOUDS BELOW 12,000 FEET WITH NO
       SIGNIFICANT WEATHER AND/OR OBSTRUCTIONS TO VISIBILITY.

  * THESE STATIONS DO NOT REPORT WEATHER SUCH AS RAIN...SNOW OR FOG.

NEZ001>004-019>022-054>056-091200-
NEBRASKA PANHANDLE

CITY           SKY/WX    TMP DP  RH WIND       PRES   REMARKS
SCOTTSBLUFF    CLOUDY    13   7  77 E15       30.14F WCI  -3
ALLIANCE       CLOUDY    13   4  67 S17       30.16F WCI  -4
CHADRON        CLOUDY     9   2  73 NE7       30.21F WCI  -2
KIMBALL        CLOUDY    15   9  78 S13       30.09R WCI   0
SIDNEY         CLOUDY    13   6  74 S14       30.16F WCI  -2
$$

NEZ057>060-069>072-079>082-091200-
SOUTHWEST NEBRASKA

CITY           SKY/WX    TMP DP  RH WIND       PRES   REMARKS
NORTH PLATTE   CLOUDY     4  -1  80 E8        30.38F WCI  -9
IMPERIAL       CLOUDY    10   3  73 SE10      30.30F WCI  -4
LEXINGTON      CLOUDY     7   2  80 CALM      30.45F
MCCOOK         CLOUDY     7   1  76 SE8       30.39F WCI  -6
OGALLALA       CLOUDY    12   6  74 SE10      30.29F WCI  -1
$$

NEZ005>010-023>029-035>040-094-091200-
NORTH CENTRAL NEBRASKA

CITY           SKY/WX    TMP DP  RH WIND       PRES   REMARKS
VALENTINE      CLEAR      1  -5  75 E6        30.40F WCI -10
AINSWORTH      CLOUDY     5   1  83 SE6       30.42F WCI  -6
BROKEN BOW     CLOUDY     6   0  76 SE8       30.44F WCI  -7
O`NEILL        CLOUDY     5   1  83 CALM      30.50F
ORD            CLOUDY    -2  -8  76 CALM      30.49F
THEDFORD       CLOUDY     7   1  74 SE8       30.36F WCI  -5
$$

NEZ041-046>049-061>064-073>077-083>087-091200-
SOUTH CENTRAL NEBRASKA

CITY           SKY/WX    TMP DP  RH WIND       PRES   REMARKS
GRAND ISLAND   CLOUDY     4   0  83 E6        30.53F WCI  -7
AURORA         CLOUDY     4  -1  79 E6        30.54F WCI  -7
HASTINGS       CLOUDY     9   3  77 E5        30.52F WCI   1
HEBRON         CLOUDY     5   2  87 CALM      30.58F
HOLDREGE       CLOUDY     9   3  78 SE5       30.46F WCI   0
KEARNEY *      CLOUDY     3  -4  72 CALM      30.49F
YORK           CLOUDY     5   1  85 CALM      30.57F
$$

NEZ011>018-030>034-042>045-091200-
NORTHEAST NEBRASKA

CITY           SKY/WX    TMP DP  RH WIND       PRES   REMARKS
NORFOLK        CLOUDY     1  -4  79 CALM      30.56F
ALBION         CLOUDY     3  -2  80 CALM      30.54F
BLAIR          CLEAR      6   3  85 N3        30.58F
FREMONT        CLOUDY     3  -1  84 CALM      30.61F
TEKAMAH        PTCLDY     4   0  83 NW6       30.63F WCI  -7
WAYNE          CLOUDY    -3  -7  84 CALM      30.58F
$$

NEZ050>053-065>068-078-088>093-091200-
SOUTHEAST NEBRASKA

CITY           SKY/WX    TMP DP  RH WIND       PRES   REMARKS
LINCOLN        CLEAR      5   1  83 CALM      30.63F
OMAHA EPPLEY   CLEAR      8   2  76 N5        30.63F WCI   0
BEATRICE       CLOUDY     6   2  86 CALM      30.61S
FALLS CITY     CLEAR      9   5  84 CALM      30.64F
NEBRASKA CITY  CLEAR      9   2  71 N5        30.61F WCI   1
PLATTSMOUTH    CLEAR      8   2  76 NW3       30.61F
$$

NEZ044-045-051>053-067-091200-
OMAHA AREA

CITY           SKY/WX    TMP DP  RH WIND       PRES   REMARKS
OMAHA EPPLEY   CLEAR      8   2  76 N5        30.63F WCI   0
BLAIR          CLEAR      6   3  85 N3        30.58F
FREMONT        CLOUDY     3  -1  84 CALM      30.61F
MILLARD        CLEAR     11   5  77 CALM      30.62F
OFFUTT AFB     CLEAR      7   5  91 NW5       30.62F WCI  -2
PLATTSMOUTH    CLEAR      8   2  76 NW3       30.61F
WAHOO          FAIR       6   2  84 CALM      30.61F
$$




USA.gov is the U.S. government's official web portal to all federal, state and local government web resources and services.